Flag for Czech Republic Weather past 2 weeks in Tábor, Czech Republic

Now
67 °F

Mild.


Feels Like: 67 °F
Forecast: 56 / 92 °F
Wind: 2 mph from East

Location: Kocelovice

Current Time: Jul 6, 2015 at 2:59:10 AM

Latest Report: Jul 6, 2015 at 2:00 AM


Visibility: 11 mi

Pressure: 29.95 "Hg

Humidity: 84%

Dew point: 62 °F

Location of TáborLocation

Historic Weather in Tábor — Graph

°F

Tábor temperature yesterday

Maximum temperature yesterday: 93 °F (at 2:00 PM)
Minimum temperature yesterday: 65 °F (at 4:00 AM)
Average temperature yesterday: 78 °F

Past Weeks' High & Low Weather Summary

 TemperatureHumidityPressure
High93 °F (Jul 5, 2:00 PM)100% (Jun 30, 2:00 AM)30.29 "Hg (Jun 30, 2:00 AM)
Low42 °F (Jun 25, 5:00 AM)28% (Jul 5, 3:00 PM)29.70 "Hg (Jun 23, 4:00 AM)
Average64 °F67%30.10 "Hg
* Reported Jun 21 1:00 AM — Jul 6 1:00 AM, Tábor, Weather by CustomWeather, © 2015

Note: Actual official high and low records may vary slightly from our data, if they occured in-between our weather recording intervals... More about our weather records

Advertising

Tábor weather history for previous 24 hours

 ConditionsComfort  
Time TempWeatherWind HumidityBarometerVisibility
1:00 AM
Mon, Jul 6
68 °FMild.1 mph85%29.94 "Hg11 mi
12:00 AM70 °FMild.2 mph82%29.93 "Hg12 mi
11:00 PM
Sun, Jul 5
71 °FMild.2 mph78%29.94 "Hg12 mi
10:00 PM76 °FPassing clouds.1 mph64%29.93 "Hg14 mi
9:00 PM78 °FPassing clouds.1 mph61%29.92 "Hg14 mi
8:00 PM80 °FPassing clouds.3 mph61%29.93 "Hg16 mi
7:00 PM82 °FScattered clouds.7 mph52%29.95 "Hg16 mi
6:00 PM86 °FThunderstorms. Partly sunny.N/A46%29.95 "Hg14 mi
5:00 PM71 °FThundershowers. Overcast.8 mph73%30.01 "Hg5 mi
4:00 PM90 °FThunderstorms. Overcast.N/A33%29.93 "Hg16 mi
3:00 PM93 °FPartly sunny.5 mph28%29.93 "Hg16 mi
2:00 PM93 °FPartly sunny.3 mph30%29.96 "Hg16 mi
1:00 PM90 °FPartly sunny.3 mph34%29.98 "Hg16 mi
12:00 PM89 °FPartly sunny.N/A38%30.00 "Hg16 mi
11:00 AM86 °FPartly sunny.N/A44%30.02 "Hg16 mi
10:00 AM82 °FPartly sunny.N/A48%30.04 "Hg16 mi
9:00 AM77 °FPartly sunny.N/A60%30.06 "Hg16 mi
8:00 AM73 °FOvercast.N/A73%30.08 "Hg14 mi
7:00 AM68 °FMild.1 mph82%30.10 "Hg12 mi
6:00 AM65 °FMild.1 mph85%30.11 "Hg12 mi
4:00 AM65 °FMild.N/A85%30.11 "Hg12 mi
3:00 AM68 °FMild.1 mph79%30.11 "Hg12 mi
2:00 AM69 °FMild.N/A77%30.11 "Hg12 mi
Weather by CustomWeather, © 2015

See weather overviewHow to use our weather pages